Home   Weather   Santa Cruz de Tenerife   Past weeks
Flag for Spain

Past Weather in Santa Cruz de Tenerife, Canary Islands, Spain — Yesterday and Last 2 Weeks

Now
54 °F

Passing clouds.


Feels Like: 48 °F
Forecast: 69 / 62 °F
Wind: 23 mph from Northwest

Location: Tenerife / Los Rodeos

Current Time: Apr 19, 2019 at 4:08:54 am

Latest Report: Apr 19, 2019 at 3:00 am


Visibility: N/A

Pressure: 30.12 "Hg

Humidity: 88%

Dew Point: 50 °F

Location of Santa Cruz de TenerifeLocation

Past Weather in Santa Cruz de Tenerife — Graph

°F

Santa Cruz de Tenerife Temperature Yesterday

Maximum temperature yesterday: 61 °F (at 1:30 pm)
Minimum temperature yesterday: 54 °F (at 1:30 am)
Average temperature yesterday: 56 °F

High & Low Weather Summary for the Past Weeks

 TemperatureHumidityPressure
High70 °F (Apr 14, 11:30 am)100% (Apr 4, 3:00 am)30.24 "Hg (Apr 4, 3:00 am)
Low48 °F (Apr 7, 6:30 am)27% (Apr 14, 11:30 am)29.89 "Hg (Apr 4, 5:30 am)
Average56 °F83%30.13 "Hg
* Reported Apr 4 3:00 am — Apr 19 3:00 am, Santa Cruz de Tenerife. Weather by CustomWeather, © 2019

Note: Actual official high and low records may vary slightly from our data, if they occured in-between our weather recording intervals... More about our weather records

Advertising

Santa Cruz de Tenerife Weather History for the Previous 24 Hours

Scroll right to see more
 ConditionsComfort  
Time TempWeatherWind HumidityBarometerVisibility
3:00 am
Fri, Apr 19
54 °FPassing clouds.23 mph88%30.12 "HgN/A
2:30 am54 °FOvercast.22 mph88%30.15 "HgN/A
2:00 am54 °FPassing clouds.24 mph100%30.15 "HgN/A
1:30 am54 °FLight rain. Mostly cloudy.20 mph100%30.18 "Hg4 mi
1:00 am55 °FPartly cloudy.21 mph82%30.18 "HgN/A
12:30 am54 °FPassing clouds.21 mph88%30.18 "HgN/A
12:00 am54 °FPassing clouds.22 mph88%30.18 "HgN/A
11:30 pm
Thu, Apr 18
55 °FMostly cloudy.21 mph82%30.18 "HgN/A
11:00 pm55 °FPassing clouds.18 mph82%30.18 "HgN/A
10:30 pm55 °FPassing clouds.17 mph82%30.18 "HgN/A
10:00 pm55 °FPassing clouds.16 mph82%30.15 "HgN/A
9:30 pm55 °FPassing clouds.18 mph82%30.15 "HgN/A
9:00 pm55 °FPassing clouds.16 mph82%30.15 "HgN/A
8:30 pm55 °FBroken clouds.16 mph77%30.15 "HgN/A
8:00 pm55 °FScattered clouds.17 mph77%30.12 "HgN/A
7:30 pm55 °FBroken clouds.18 mph77%30.12 "HgN/A
7:00 pm57 °FBroken clouds.17 mph77%30.12 "HgN/A
6:30 pm57 °FBroken clouds.16 mph77%30.12 "HgN/A
6:00 pm57 °FBroken clouds.20 mph82%30.12 "HgN/A
5:30 pm57 °FBroken clouds.17 mph77%30.12 "HgN/A
5:00 pm59 °FBroken clouds.18 mph72%30.12 "HgN/A
4:30 pm59 °FBroken clouds.16 mph77%30.12 "HgN/A
4:00 pm57 °FPartly sunny.20 mph77%30.12 "HgN/A
3:30 pm59 °FPartly sunny.18 mph72%30.12 "HgN/A
3:00 pm59 °FBroken clouds.20 mph72%30.12 "HgN/A
2:30 pm61 °FPartly sunny.21 mph72%30.12 "HgN/A
1:30 pm61 °FPartly sunny.20 mph72%30.15 "HgN/A
1:00 pm59 °FPartly sunny.21 mph77%30.15 "HgN/A
12:30 pm59 °FPartly sunny.20 mph72%30.15 "HgN/A
12:00 pm59 °FPartly sunny.18 mph77%30.15 "HgN/A
11:30 am59 °FPartly sunny.21 mph77%30.15 "HgN/A
11:00 am57 °FPartly sunny.18 mph77%30.15 "HgN/A
10:30 am57 °FPartly sunny.20 mph77%30.15 "HgN/A
10:00 am57 °FPartly sunny.20 mph77%30.12 "HgN/A
9:30 am55 °FPartly sunny.18 mph88%30.12 "HgN/A
9:00 am55 °FPartly sunny.15 mph88%30.12 "HgN/A
8:30 am55 °FPartly sunny.15 mph88%30.12 "HgN/A
8:00 am54 °FPartly sunny.16 mph94%30.09 "HgN/A
7:30 am54 °FPassing clouds.14 mph94%30.09 "HgN/A
7:00 am55 °FPassing clouds.17 mph88%30.09 "HgN/A
6:30 am54 °FPassing clouds.15 mph94%30.09 "HgN/A
6:00 am54 °FMostly cloudy.15 mph94%30.07 "HgN/A
5:30 am55 °FPassing clouds.17 mph88%30.07 "HgN/A
5:00 am54 °FPassing clouds.15 mph88%30.07 "HgN/A
4:30 am55 °FPassing clouds.15 mph88%30.07 "HgN/A
4:00 am55 °FMostly cloudy.16 mph88%30.09 "HgN/A
Weather by CustomWeather, © 2019

See weather overview